Flag for Italy

Past Weather in Genoa, Italy — Yesterday and Last 2 Weeks

Now
70 °F

Light rain. Partly cloudy.


Feels Like: 70 °F
Forecast: 70 / 67 °F
Wind: 21 mph from South

Location: Genova / Sestri
Current Time: Oct 1, 2020 at 10:14:04 pm
Latest Report: Oct 1, 2020 at 9:20 pm
Visibility: 4 mi
Pressure29.68 "Hg
Humidity: 88%
Dew Point: 66 °F
Location of GenoaLocation

Past Weather in Genoa — Graph

°F

Genoa Temperature Yesterday

Maximum temperature yesterday: 70 °F (at 10:20 am)
Minimum temperature yesterday: 63 °F (at 12:50 am)
Average temperature yesterday: 66 °F

High & Low Weather Summary for the Past Weeks

 TemperatureHumidityPressure
High90 °F (Sep 18, 5:20 pm)100% (Sep 22, 1:50 pm)30.09 "Hg (Sep 22, 1:50 pm)
Low54 °F (Sep 27, 7:20 am)15% (Sep 26, 3:50 pm)29.30 "Hg (Sep 25, 2:50 pm)
Average69 °F67%29.84 "Hg
* Reported Sep 16 8:20 pm — Oct 1 8:50 pm, Genoa. Weather by CustomWeather, © 2020

Note: Actual official high and low records may vary slightly from our data, if they occured in-between our weather recording intervals... More about our weather records

Genoa Weather History for the Previous 24 Hours

Scroll right to see more
 ConditionsComfort  
Time TempWeatherWind HumidityBarometerVisibility
8:50 pm
Thu, Oct 1
64 °FLight rain. Partly cloudy.7 mph94%29.68 "Hg4 mi
8:20 pm64 °FPartly cloudy.17 mph88%29.71 "HgN/A
7:50 pm66 °FPartly cloudy.18 mph83%29.71 "HgN/A
7:20 pm68 °FPartly cloudy.7 mph69%29.71 "HgN/A
6:50 pm68 °FBroken clouds.9 mph69%29.71 "HgN/A
6:20 pm68 °FBroken clouds.10 mph73%29.71 "HgN/A
5:50 pm68 °FBroken clouds.9 mph73%29.74 "HgN/A
5:20 pm68 °FBroken clouds.10 mph73%29.74 "HgN/A
4:50 pm68 °FPartly sunny.9 mph73%29.74 "HgN/A
4:20 pm68 °FPartly sunny.7 mph73%29.74 "HgN/A
3:50 pm68 °FScattered clouds.8 mph73%29.74 "HgN/A
3:20 pm68 °FScattered clouds.9 mph69%29.77 "HgN/A
2:50 pm68 °FPartly sunny.8 mph73%29.77 "HgN/A
2:20 pm68 °FPartly sunny.8 mph69%29.77 "HgN/A
1:50 pm68 °FScattered clouds.8 mph69%29.80 "HgN/A
1:20 pm68 °FScattered clouds.8 mph69%29.80 "HgN/A
12:50 pm68 °FScattered clouds.8 mph64%29.80 "HgN/A
12:20 pm68 °FScattered clouds.7 mph69%29.80 "HgN/A
11:50 am68 °FPartly sunny.8 mph73%29.80 "HgN/A
11:20 am68 °FScattered clouds.8 mph64%29.80 "HgN/A
10:50 am68 °FScattered clouds.9 mph69%29.80 "HgN/A
10:20 am66 °FBroken clouds.6 mph83%29.80 "HgN/A
9:50 am64 °FPartly sunny.8 mph88%29.80 "HgN/A
9:20 am64 °FBroken clouds.6 mph88%29.80 "HgN/A
8:50 am64 °FBroken clouds.6 mph88%29.80 "HgN/A
8:20 am64 °FScattered showers. Partly sunny.3 mph88%29.80 "HgN/A
7:50 am64 °FRain. Partly sunny.5 mph88%29.80 "HgN/A
7:20 am64 °FPassing clouds.3 mph83%29.80 "HgN/A
6:50 am64 °FPartly cloudy.5 mph83%29.80 "HgN/A
6:20 am64 °FPassing clouds.2 mph83%29.80 "HgN/A
5:50 am64 °FPassing clouds.1 mph83%29.80 "HgN/A
5:20 am64 °FPassing clouds.3 mph83%29.83 "HgN/A
4:50 am64 °FPassing clouds.5 mph83%29.83 "HgN/A
4:20 am64 °FPassing clouds.1 mph83%29.83 "HgN/A
3:50 am63 °FPassing clouds.3 mph88%29.83 "HgN/A
3:20 am64 °FPassing clouds.3 mph83%29.86 "HgN/A
2:50 am64 °FPassing clouds.2 mph83%29.86 "HgN/A
2:20 am64 °FPassing clouds.5 mph83%29.86 "HgN/A
1:50 am64 °FPassing clouds.3 mph83%29.89 "HgN/A
1:20 am64 °FPassing clouds.2 mph83%29.89 "HgN/A
12:50 am64 °FPassing clouds.3 mph83%29.89 "HgN/A
12:20 am64 °FPartly cloudy.3 mph83%29.89 "HgN/A
11:50 pm
Wed, Sep 30
64 °FLight rain. Passing clouds.2 mph83%29.89 "HgN/A
11:20 pm64 °FPassing clouds.3 mph78%29.92 "HgN/A
10:50 pm64 °FPassing clouds.3 mph83%29.92 "HgN/A
10:20 pm64 °FPassing clouds.3 mph78%29.92 "HgN/A
Weather by CustomWeather, © 2020

See weather overview